This is the latest recevied weather packets stored in our database for station/object WZ8H. If no packets are shown the sender has not sent any weather packets the latest 10 day(s).
| Time | Temp. | Humidity | Pressure | Rain* | Wind** | Luminosity | Snow |
|---|---|---|---|---|---|---|---|
| 1778098157 | 12.22° C | 54% | 1011.6 hPa | 0 mm | - | 151 W/m² | - |
| 1778097850 | 12.78° C | 54% | 1011.7 hPa | 0 mm | - | 265 W/m² | - |
| 1778097533 | 12.78° C | 53% | 1011.7 hPa | 0 mm | - | 285 W/m² | - |
| 1778097231 | 12.78° C | 55% | 1011.8 hPa | 0 mm | - | 285 W/m² | - |
| 1778096904 | 12.78° C | 56% | 1011.7 hPa | 0 mm | - | 288 W/m² | - |
| 1778096579 | 12.78° C | 55% | 1011.7 hPa | 0 mm | - | 338 W/m² | - |
| 1778096274 | 12.78° C | 55% | 1011.7 hPa | 0 mm | - | 352 W/m² | - |
| 1778095948 | 12.78° C | 55% | 1011.8 hPa | 0 mm | - | 287 W/m² | - |
| 1778095621 | 12.78° C | 54% | 1011.7 hPa | 0 mm | - | 406 W/m² | - |
| 1778095319 | 13.33° C | 54% | 1011.7 hPa | 0 mm | - | 309 W/m² | - |
| 1778095014 | 13.33° C | 55% | 1011.8 hPa | 0 mm | - | 362 W/m² | - |
| 1778094712 | 13.89° C | 55% | 1011.6 hPa | 0 mm | - | 399 W/m² | - |
| 1778094415 | 13.89° C | 54% | 1011.6 hPa | 0 mm | - | 517 W/m² | - |
| 1778094080 | 13.33° C | 53% | 1011.4 hPa | 0 mm | - | 628 W/m² | - |
| 1778093778 | 13.33° C | 54% | 1011.3 hPa | 0 mm | - | 520 W/m² | - |
| 1778093456 | 13.89° C | 52% | 1011.4 hPa | 0 mm | - | 457 W/m² | - |
| 1778093147 | 13.89° C | 53% | 1011.5 hPa | 0 mm | - | 436 W/m² | - |
| 1778092824 | 13.89° C | 54% | 1011.4 hPa | 0 mm | - | 545 W/m² | - |
| 1778092495 | 13.89° C | 53% | 1011.4 hPa | 0 mm | - | 1037 W/m² | - |
| 1778092194 | 13.89° C | 52% | 1011.5 hPa | 0 mm | - | 921 W/m² | - |
| 1778091864 | 13.89° C | 55% | 1011.6 hPa | 0 mm | - | 636 W/m² | - |
| 1778091564 | 13.89° C | 53% | 1011.6 hPa | 0 mm | - | 742 W/m² | - |
| 1778091258 | 13.89° C | 53% | 1011.6 hPa | 0 mm | - | 807 W/m² | - |
| 1778090955 | 13.89° C | 54% | 1011.5 hPa | 0 mm | - | 666 W/m² | - |
| 1778090653 | 13.89° C | 55% | 1011.5 hPa | 0 mm | - | 666 W/m² | - |
* Rain latest hour (hover to see other rain measurements)
** Current wind speed in m/s (hover to see current wind gust speed)